FW3224 Weather Reports


time (UTC)temp
C
wind
direction
speed
KPH
gust
KPH
rain 1hr
cm
rain 24hr
cm
rain mn
cm
humidity
%
barometer
mb
20260831191544 11 317 0.0 0.0 0.00 0.03 0.03 94 1025.7
20260831191044 11 317 0.0 1.6 0.00 0.03 0.03 94 1025.7
20260831190544 11 315 0.0 6.4 0.00 0.03 0.03 94 1025.7
20260831185543 11 322 0.0 4.8 0.00 0.03 0.03 94 1025.7
20260831185043 11 321 0.0 6.4 0.00 0.03 0.03 94 1025.7
20260831184542 11 316 1.6 6.4 0.00 0.03 0.03 94 1025.7
20260831184042 11 305 1.6 6.4 0.00 0.03 0.03 94 1025.8
20260831183542 11 298 1.6 4.8 0.00 0.03 0.03 94 1025.7
20260831183042 11 319 0.0 4.8 0.00 0.03 0.03 93 1025.8
20260831182541 11 350 0.0 3.2 0.00 0.03 0.03 93 1025.8
20260831182041 11 323 0.0 3.2 0.00 0.03 0.03 94 1025.7
20260831181541 11 323 0.0 3.2 0.00 0.03 0.03 93 1025.8
20260831181040 11 290 0.0 3.2 0.00 0.03 0.03 93 1025.8
20260831180049 11 290 0.0 3.2 0.00 0.03 0.03 93 1025.8
20260831175547 11 290 0.0 3.2 0.00 0.05 0.03 93 1025.8
20260831175046 11 290 0.0 3.2 0.03 0.05 0.03 93 1025.8
20260831174547 11 286 0.0 4.8 0.03 0.05 0.03 93 1025.8
20260831174046 11 286 1.6 4.8 0.03 0.05 0.03 93 1025.8
20260831173548 11 288 0.0 3.2 0.03 0.05 0.03 92 1025.8
20260831173046 12 288 0.0 4.8 0.03 0.05 0.03 92 1025.8
20260831172544 12 288 0.0 4.8 0.03 0.05 0.03 92 1025.8
20260831172047 12 287 1.6 4.8 0.03 0.05 0.03 92 1025.9
20260831171543 12 287 0.0 4.8 0.03 0.05 0.03 92 1025.9
20260831171042 12 287 0.0 3.2 0.03 0.05 0.03 92 1025.9
20260831170541 12 287 0.0 4.8 0.03 0.05 0.03 92 1025.9
20260831170040 12 287 0.0 4.8 0.03 0.05 0.03 92 1025.9
20260831165540 12 305 0.0 0.0 0.03 0.05 0.03 92 1025.9
20260831165038 12 298 0.0 0.0 0.00 0.03 0.00 91 1026.0
20260831164554 12 285 0.0 3.2 0.00 0.03 0.00 91 1026.0
20260831164039 12 285 0.0 3.2 0.00 0.03 0.00 91 1026.1
20260831163536 12 289 0.0 4.8 0.00 0.03 0.00 91 1026.3
20260831163040 12 298 1.6 4.8 0.00 0.03 0.00 91 1026.3
20260831162534 13 300 1.6 4.8 0.00 0.03 0.00 91 1026.4
20260831162035 13 288 0.0 3.2 0.00 0.03 0.00 91 1026.6
20260831161534 13 291 0.0 3.2 0.00 0.03 0.00 91 1026.6
20260831161032 13 302 0.0 3.2 0.00 0.03 0.00 92 1026.6
20260831160532 13 301 0.0 6.4 0.00 0.03 0.00 92 1026.7
20260831160031 13 303 3.2 6.4 0.00 0.03 0.00 92 1026.8
20260831155530 13 304 3.2 4.8 0.00 0.03 0.00 93 1026.8
20260831155029 13 310 3.2 4.8 0.00 0.03 0.00 93 1026.8
20260831154530 12 325 1.6 6.4 0.00 0.03 0.00 93 1026.9
20260831154028 12 327 1.6 6.4 0.00 0.03 0.00 93 1027.0
20260831153525 12 332 0.0 4.8 0.00 0.03 0.00 93 1027.1
20260831153027 12 326 1.6 6.4 0.00 0.03 0.00 93 1027.1
20260831152524 12 306 1.6 6.4 0.00 0.03 0.00 94 1027.2
20260831152024 12 319 1.6 6.4 0.00 0.03 0.00 94 1027.3
20260831151524 12 317 3.2 6.4 0.00 0.03 0.00 94 1027.3
20260831151023 12 331 1.6 6.4 0.00 0.03 0.00 94 1027.4
20260831150524 12 323 3.2 6.4 0.00 0.03 0.00 94 1027.4
20260831150021 12 280 0.0 3.2 0.00 0.03 0.00 94 1027.4
20260831145520 12 280 0.0 4.8 0.00 0.03 0.00 94 1027.5
20260831145021 12 303 0.0 6.4 0.00 0.03 0.00 94 1027.5
20260831144520 12 280 0.0 4.8 0.00 0.03 0.00 94 1027.5
20260831144021 12 284 1.6 6.4 0.00 0.03 0.00 94 1027.6
20260831143519 12 278 3.2 6.4 0.00 0.03 0.00 94 1027.7
20260831143021 12 261 1.6 6.4 0.00 0.03 0.00 94 1027.6
20260831142518 12 272 1.6 6.4 0.00 0.03 0.00 94 1027.7
20260831142017 12 292 0.0 4.8 0.00 0.03 0.00 94 1027.7
20260831141517 12 288 0.0 4.8 0.00 0.03 0.00 94 1027.6
20260831141017 12 294 0.0 0.0 0.00 0.03 0.00 94 1027.6
20260831140516 12 294 0.0 0.0 0.00 0.03 0.00 94 1027.7
20260831140014 12 294 0.0 0.0 0.00 0.03 0.00 94 1027.7
20260831135514 12 294 0.0 0.0 0.00 0.03 0.03 94 1027.7
20260831135014 12 294 0.0 0.0 0.00 0.03 0.03 93 1027.8
20260831134513 12 294 0.0 0.0 0.00 0.03 0.03 93 1027.8
20260831134012 12 294 0.0 0.0 0.00 0.03 0.03 93 1027.8
20260831133516 12 294 0.0 0.0 0.00 0.03 0.03 93 1027.9
20260831133012 12 294 0.0 0.0 0.00 0.03 0.03 93 1027.9
20260831132512 12 294 0.0 0.0 0.00 0.03 0.03 93 1028.0
20260831132012 12 294 0.0 0.0 0.00 0.03 0.03 93 1028.0
20260831131512 13 294 0.0 0.0 0.00 0.03 0.03 92 1028.1
20260831131012 13 294 0.0 0.0 0.00 0.03 0.03 92 1028.2
20260831130511 13 294 0.0 0.0 0.00 0.03 0.03 92 1028.2
20260831130015 13 292 0.0 0.0 0.00 0.03 0.03 92 1028.2
20260831125511 13 292 0.0 0.0 0.00 0.03 0.03 92 1028.3
20260831125012 13 292 0.0 0.0 0.00 0.03 0.03 92 1028.3
20260831124510 13 292 0.0 0.0 0.00 0.03 0.03 92 1028.3
20260831124010 13 292 0.0 0.0 0.00 0.03 0.03 92 1028.3
20260831123514 13 292 0.0 0.0 0.00 0.03 0.03 92 1028.3
20260831123010 13 292 0.0 0.0 0.00 0.03 0.03 92 1028.4
20260831122510 13 292 0.0 0.0 0.00 0.03 0.03 92 1028.4
20260831122010 13 281 0.0 0.0 0.00 0.03 0.03 91 1028.5
20260831121510 14 289 0.0 0.0 0.00 0.03 0.03 91 1028.5
20260831121010 14 304 0.0 0.0 0.00 0.03 0.03 91 1028.6
20260831120510 14 289 0.0 0.0 0.00 0.03 0.03 91 1028.6
20260831120015 14 289 0.0 6.4 0.00 0.03 0.03 91 1028.6
20260831115508 14 317 1.6 6.4 0.00 0.03 0.03 91 1028.7
20260831115009 14 302 0.0 4.8 0.00 0.03 0.03 90 1028.8
20260831114523 14 232 0.0 4.8 0.00 0.03 0.03 90 1028.8
20260831114008 14 245 0.0 4.8 0.00 0.03 0.03 90 1028.8
20260831113508 15 19 0.0 3.2 0.00 0.03 0.03 90 1028.8
20260831113008 15 292 0.0 8.0 0.00 0.03 0.03 90 1028.9
20260831112508 15 277 0.0 8.0 0.00 0.03 0.03 89 1028.9
20260831112007 15 313 1.6 8.0 0.00 0.03 0.03 89 1028.9
20260831111506 15 258 0.0 6.4 0.00 0.03 0.03 89 1028.9
20260831111011 15 343 1.6 6.4 0.00 0.03 0.03 89 1028.8
20260831110511 15 309 0.0 6.4 0.00 0.03 0.03 89 1028.8
20260831110006 15 355 1.6 9.7 0.00 0.03 0.03 89 1028.8
20260831105506 15 263 1.6 8.0 0.00 0.03 0.03 89 1028.8
20260831105006 15 286 3.2 8.0 0.00 0.03 0.03 88 1028.8
20260831104506 15 11 0.0 6.4 0.00 0.03 0.03 88 1028.8
20260831104005 15 336 1.6 6.4 0.00 0.03 0.03 88 1028.8
20260831103507 15 284 0.0 8.0 0.00 0.03 0.03 87 1028.8
20260831103005 15 297 1.6 8.0 0.00 0.03 0.03 87 1028.8
20260831102505 15 288 1.6 6.4 0.00 0.03 0.03 87 1028.8
20260831102005 15 254 1.6 6.4 0.00 0.03 0.03 87 1028.8
20260831101505 15 267 0.0 4.8 0.00 0.03 0.03 86 1028.8
20260831101005 15 275 1.6 8.0 0.00 0.03 0.03 86 1028.8
20260831100504 15 317 1.6 8.0 0.00 0.03 0.03 86 1028.9
20260831100004 15 327 1.6 6.4 0.00 0.03 0.03 86 1028.9
20260831095503 15 304 1.6 4.8 0.00 0.03 0.03 86 1028.9
20260831095003 15 271 1.6 6.4 0.00 0.03 0.03 86 1028.8
20260831094504 15 325 1.6 6.4 0.00 0.03 0.03 86 1028.9
20260831094003 15 279 0.0 6.4 0.00 0.03 0.03 85 1028.9
20260831093506 15 282 1.6 6.4 0.00 0.03 0.03 86 1028.9
20260831093004 15 340 0.0 8.0 0.00 0.03 0.03 86 1028.9
20260831092504 15 272 1.6 8.0 0.00 0.03 0.03 85 1028.9
20260831092002 15 347 0.0 4.8 0.00 0.03 0.03 85 1028.9
20260831091507 15 286 0.0 11.3 0.00 0.03 0.03 85 1028.9
20260831091002 15 311 3.2 11.3 0.00 0.03 0.03 85 1028.9
20260831090502 15 290 1.6 6.4 0.00 0.03 0.03 85 1028.8
20260831090002 16 304 0.0 9.7 0.00 0.03 0.03 85 1028.8
20260831085501 16 281 1.6 9.7 0.00 0.03 0.03 84 1028.8
20260831085001 16 296 1.6 6.4 0.00 0.03 0.03 84 1028.7
20260831084501 16 285 0.0 6.4 0.00 0.03 0.03 84 1028.6
20260831084002 16 13 1.6 6.4 0.00 0.03 0.03 84 1028.6
20260831083502 16 339 0.0 6.4 0.00 0.03 0.03 83 1028.6
20260831083110 16 327 1.6 4.8 0.00 0.03 0.03 83 1028.5
20260831082600 16 333 0.0 4.8 0.00 0.03 0.03 83 1028.5
20260831082502 16 333 1.6 4.8 0.00 0.03 0.03 83 1028.5
20260831082002 16 344 0.0 4.8 0.00 0.03 0.03 82 1028.5
20260831081607 16 314 0.0 4.8 0.00 0.03 0.03 82 1028.5
20260831081101 16 355 0.0 6.4 0.00 0.03 0.03 82 1028.5
20260831080604 16 321 1.6 8.0 0.00 0.03 0.03 81 1028.5
20260831080100 16 66 0.0 8.0 0.00 0.03 0.03 80 1028.6
20260831075600 16 325 0.0 6.4 0.00 0.03 0.03 79 1028.6
20260831075100 16 332 0.0 6.4 0.00 0.03 0.03 78 1028.5
20260831074606 16 64 0.0 3.2 0.00 0.03 0.03 77 1028.5
20260831074102 17 341 0.0 4.8 0.00 0.03 0.03 76 1028.5
20260831073559 17 313 0.0 4.8 0.00 0.03 0.03 75 1028.5
20260831073100 17 309 0.0 4.8 0.00 0.03 0.03 74 1028.4
20260831072559 17 212 0.0 6.4 0.00 0.03 0.03 73 1028.4
20260831072058 17 337 1.6 6.4 0.00 0.03 0.03 72 1028.4
20260831071559 18 293 0.0 3.2 0.00 0.03 0.03 72 1028.3
20260831071058 18 42 0.0 1.6 0.00 0.03 0.03 71 1028.3
20260831070558 18 42 0.0 4.8 0.00 0.03 0.03 70 1028.2
20260831065557 18 87 0.0 4.8 0.00 0.03 0.03 68 1028.3
20260831065057 18 76 0.0 4.8 0.00 0.03 0.03 66 1028.3
20260831064558 18 59 0.0 8.0 0.00 0.03 0.03 65 1028.2
20260831064059 18 30 1.6 6.4 0.00 0.03 0.03 63 1028.2
20260831063557 19 360 0.0 12.9 0.00 0.03 0.03 62 1028.1
20260831063057 19 82 1.6 12.9 0.00 0.03 0.03 60 1028.2
20260831062557 19 60 0.0 6.4 0.00 0.03 0.03 59 1028.1
20260831062058 19 123 1.6 12.9 0.00 0.03 0.03 58 1028.0
20260831061558 19 266 4.8 12.9 0.00 0.03 0.03 57 1028.0
20260831061056 19 89 0.0 6.4 0.00 0.03 0.03 63 1028.0
20260831060555 19 24 1.6 6.4 0.00 0.03 0.03 62 1028.0
20260831060055 20 65 1.6 6.4 0.00 0.03 0.03 61 1028.0
20260831055556 20 329 0.0 6.4 0.00 0.03 0.03 60 1028.0
20260831055059 20 328 1.6 8.0 0.00 0.03 0.03 58 1027.9
20260831054556 20 49 3.2 12.9 0.00 0.03 0.03 58 1027.9
20260831054056 20 67 1.6 6.4 0.00 0.03 0.03 57 1028.0
20260831053558 20 68 1.6 6.4 0.00 0.03 0.03 54 1027.9
20260831053055 20 94 1.6 14.5 0.00 0.03 0.03 53 1028.0
20260831052555 20 78 4.8 14.5 0.00 0.03 0.03 51 1028.0
20260831052052 21 90 3.2 11.3 0.00 0.03 0.03 52 1028.0
20260831051602 21 254 1.6 6.4 0.00 0.03 0.03 53 1027.9
20260831051052 21 38 3.2 9.7 0.00 0.03 0.03 52 1027.9
20260831050552 21 71 1.6 9.7 0.00 0.03 0.03 52 1027.9
20260831050052 21 99 1.6 9.7 0.00 0.03 0.03 52 1027.9
20260831045551 21 116 1.6 9.7 0.00 0.03 0.03 52 1027.9
20260831045054 21 82 3.2 12.9 0.00 0.03 0.03 51 1027.9
20260831044609 21 171 1.6 14.5 0.00 0.03 0.03 52 1027.9
20260831044049 21 311 1.6 14.5 0.00 0.03 0.03 53 1027.9
20260831043549 22 61 3.2 11.3 0.00 0.03 0.03 52 1027.9
20260831043049 22 53 3.2 8.0 0.00 0.03 0.03 52 1027.9
20260831042548 22 302 0.0 6.4 0.00 0.03 0.03 53 1028.0
20260831042047 22 79 1.6 6.4 0.00 0.03 0.03 52 1028.0
20260831041558 22 100 1.6 9.7 0.00 0.03 0.03 53 1028.0
20260831041047 22 123 3.2 9.7 0.00 0.03 0.03 53 1028.1
20260831040545 22 325 3.2 6.4 0.00 0.03 0.03 53 1028.1
20260831040044 22 83 0.0 4.8 0.00 0.03 0.03 55 1028.2
20260831035542 22 122 0.0 8.0 0.00 0.03 0.03 56 1028.2
20260831035042 22 294 1.6 12.9 0.00 0.03 0.03 53 1028.3
20260831034541 22 252 1.6 12.9 0.00 0.03 0.03 54 1028.3
20260831034041 22 322 1.6 9.7 0.00 0.03 0.03 54 1028.3
20260831033540 22 250 1.6 12.9 0.00 0.03 0.03 52 1028.4
20260831033041 22 275 4.8 12.9 0.00 0.03 0.03 52 1028.4
20260831032539 22 313 4.8 9.7 0.00 0.03 0.03 54 1028.5
20260831032038 21 190 1.6 9.7 0.00 0.03 0.03 53 1028.6
20260831031539 21 265 3.2 14.5 0.00 0.03 0.03 55 1028.6
20260831031036 22 298 6.4 12.9 0.00 0.03 0.03 53 1028.7
20260831030534 22 328 0.0 9.7 0.00 0.03 0.03 57 1028.7
20260831030033 22 322 3.2 9.7 0.00 0.03 0.03 56 1028.9
20260831025531 21 286 1.6 11.3 0.00 0.03 0.03 57 1029.0
20260831025031 21 293 1.6 17.7 0.00 0.03 0.03 57 1029.0
20260831024530 21 276 3.2 17.7 0.00 0.03 0.03 58 1029.2
20260831024027 21 265 1.6 11.3 0.00 0.03 0.03 59 1029.2
20260831023528 20 335 1.6 16.1 0.00 0.03 0.03 59 1029.4
20260831023027 20 265 6.4 16.1 0.00 0.03 0.03 59 1029.4
20260831022526 21 282 3.2 8.0 0.00 0.03 0.03 60 1029.5
20260831022026 21 5 1.6 6.4 0.00 0.03 0.03 60 1029.5
20260831021525 20 211 0.0 8.0 0.00 0.03 0.03 62 1029.6
20260831021023 20 325 3.2 12.9 0.00 0.03 0.03 62 1029.7
20260831020522 20 245 3.2 12.9 0.00 0.03 0.03 63 1029.7
20260831020022 20 321 3.2 12.9 0.00 0.03 0.03 62 1029.8
20260831015520 20 162 4.8 12.9 0.00 0.03 0.03 62 1029.9
20260831015019 20 257 3.2 9.7 0.00 0.03 0.03 64 1030.0
20260831014519 20 117 1.6 12.9 0.00 0.03 0.03 63 1030.1
20260831014019 20 294 6.4 12.9 0.00 0.03 0.03 64 1030.2
20260831013520 20 281 4.8 12.9 0.00 0.03 0.03 65 1030.2
20260831013017 19 107 0.0 11.3 0.00 0.03 0.03 65 1030.3
20260831012516 19 240 4.8 14.5 0.00 0.03 0.03 63 1030.3
20260831012014 19 217 4.8 12.9 0.00 0.03 0.03 64 1030.4
20260831011515 19 320 4.8 9.7 0.00 0.03 0.03 63 1030.5
20260831011013 19 301 1.6 8.0 0.00 0.03 0.03 63 1030.5
20260831010513 19 298 3.2 14.5 0.00 0.03 0.03 64 1030.6
20260831010014 19 269 4.8 14.5 0.00 0.03 0.03 64 1030.6
20260831005511 19 232 0.0 6.4 0.00 0.03 0.03 66 1030.6
20260831005010 19 76 0.0 6.4 0.00 0.03 0.03 66 1030.7
20260831004509 18 28 3.2 6.4 0.00 0.03 0.03 68 1030.7
20260831004008 18 105 0.0 6.4 0.00 0.03 0.03 69 1030.7
20260831003506 18 304 1.6 8.0 0.00 0.03 0.03 71 1030.9
20260831003005 18 308 3.2 16.1 0.00 0.03 0.03 72 1030.8
20260831002504 18 349 3.2 16.1 0.00 0.03 0.03 73 1030.9
20260831002003 18 317 6.4 12.9 0.00 0.03 0.03 74 1030.8
20260831001502 18 251 4.8 14.5 0.00 0.03 0.03 75 1030.8
20260831001001 17 327 6.4 17.7 0.00 0.03 0.03 75 1030.7
20260831000603 17 319 6.4 17.7 0.00 0.03 0.03 76 1030.8
20260830235559 17 14 6.4 16.1 0.00 0.03 0.03 79 1030.7
20260830235057 17 240 6.4 16.1 0.00 0.03 0.03 79 1030.8
20260830234602 17 273 4.8 9.7 0.00 0.03 0.03 79 1030.8
20260830234054 17 271 1.6 9.7 0.00 0.03 0.03 81 1030.7
20260830233556 16 311 3.2 8.0 0.00 0.03 0.03 81 1030.7
20260830233052 16 300 4.8 11.3 0.00 0.03 0.03 82 1030.8
20260830232553 16 241 4.8 11.3 0.00 0.03 0.03 82 1030.8
20260830232050 16 274 4.8 11.3 0.00 0.03 0.03 82 1030.8
20260830231550 16 259 4.8 11.3 0.00 0.03 0.03 83 1030.7
20260830231048 16 320 4.8 11.3 0.00 0.03 0.03 83 1030.7
20260830230547 16 298 1.6 8.0 0.00 0.03 0.03 84 1030.7
20260830230048 16 257 0.0 6.4 0.00 0.03 0.03 84 1030.7
20260830225646 16 346 1.6 6.4 0.00 0.03 0.03 85 1030.6
20260830225044 15 274 0.0 3.2 0.00 0.03 0.03 86 1030.6
20260830224543 15 317 0.0 4.8 0.00 0.03 0.03 87 1030.7
20260830224042 15 317 0.0 4.8 0.00 0.03 0.03 87 1030.7
20260830223542 15 295 0.0 4.8 0.00 0.03 0.03 87 1030.6
20260830223042 15 287 0.0 1.6 0.00 0.03 0.03 88 1030.7
20260830222539 15 287 0.0 0.0 0.00 0.03 0.03 88 1030.7
20260830222042 14 287 0.0 3.2 0.00 0.03 0.03 89 1030.6
20260830221540 14 286 0.0 3.2 0.00 0.03 0.03 89 1030.6
20260830221040 14 319 0.0 4.8 0.00 0.03 0.03 90 1030.6
20260830220534 13 319 3.2 4.8 0.00 0.03 0.03 90 1030.5
20260830220033 13 311 3.2 4.8 0.00 0.03 0.03 90 1030.5
20260830215532 13 310 0.0 4.8 0.00 0.03 0.03 91 1030.5
20260830215033 13 310 1.6 4.8 0.00 0.03 0.03 91 1030.5
20260830214530 13 311 0.0 4.8 0.00 0.03 0.03 92 1030.5
20260830214028 12 305 0.0 3.2 0.00 0.03 0.03 91 1030.4
20260830213528 12 305 1.6 4.8 0.00 0.03 0.03 91 1030.4
20260830213028 12 304 1.6 6.4 0.00 0.03 0.03 91 1030.4
20260830212527 12 307 3.2 6.4 0.00 0.03 0.03 91 1030.3
20260830212027 12 315 3.2 6.4 0.00 0.03 0.03 92 1030.3
20260830211527 12 302 3.2 6.4 0.00 0.03 0.03 92 1030.3
20260830211026 12 309 3.2 6.4 0.00 0.03 0.03 92 1030.2
20260830210526 12 317 3.2 8.0 0.00 0.03 0.03 92 1030.1
20260830210024 11 343 4.8 8.0 0.00 0.03 0.03 92 1030.1
20260830205523 11 322 3.2 6.4 0.00 0.03 0.03 92 1030.0
20260830205022 11 317 3.2 6.4 0.00 0.03 0.03 92 1029.9
20260830204523 11 283 1.6 6.4 0.00 0.03 0.03 92 1029.8
20260830204022 11 309 3.2 6.4 0.00 0.03 0.03 92 1029.7
20260830203623 11 318 3.2 6.4 0.00 0.03 0.03 92 1029.6
20260830203042 11 325 3.2 6.4 0.00 0.03 0.03 92 1029.6
20260830202521 11 321 3.2 6.4 0.00 0.03 0.03 92 1029.6
20260830202020 11 311 3.2 6.4 0.00 0.03 0.03 93 1029.5
20260830201521 11 294 0.0 0.0 0.00 0.03 0.03 93 1029.5
20260830201023 11 293 0.0 0.0 0.00 0.03 0.03 94 1029.6
20260830200520 11 293 0.0 0.0 0.00 0.03 0.03 94 1029.6
20260830200020 11 293 0.0 0.0 0.00 0.03 0.03 94 1029.5
20260830195519 11 293 0.0 0.0 0.00 0.03 0.03 94 1029.5
20260830195019 11 293 0.0 0.0 0.00 0.03 0.03 95 1029.3
20260830194519 11 293 0.0 0.0 0.00 0.03 0.03 95 1029.2
20260830194019 11 293 0.0 0.0 0.00 0.03 0.03 95 1029.3
20260830193519 10 293 0.0 0.0 0.00 0.03 0.03 95 1029.3
20260830193018 10 293 0.0 0.0 0.00 0.03 0.03 95 1029.3
20260830192517 11 293 0.0 0.0 0.00 0.03 0.03 95 1029.3
20260830192017 11 293 0.0 0.0 0.00 0.03 0.03 95 1029.2